Wind_Speed
23 23 23 22 22 22 22 23 23 23 23 23 23 22 23 23 23 23 23 24 24 24 25 26 26 26 27 27 26 26 26 26 26 26 25 26 26 27 27 27 27 26 27 28
24 24 24 24 23 23 23 23 24 24 24 24 24 24 24 25 25 25 25 25 25 26 26 27 27 28 28 28 28 28 28 28 28 28 28 28 28 28 28 27 27 27 28 29
24 24 25 26 25 25 24 24 23 24 24 25 25 25 26 26 26 26 26 26 26 26 27 27 28 28 29 29 29 29 29 30 30 30 30 30 29 29 28 28 28 28 28 29
26 25 26 26 25 25 25 25 25 25 25 25 24 25 25 26 27 27 28 28 27 27 27 28 28 28 29 29 29 29 29 30 30 31 30 29 29 29 29 29 29 29 29 30
28 27 27 27 26 26 26 26 26 26 25 24 25 25 26 26 27 27 28 27 28 28 27 28 28 28 28 28 29 29 30 31 31 31 30 30 30 30 31 31 31 31 31 31
29 29 28 27 25 25 26 28 26 26 26 26 26 26 27 27 26 27 27 27 27 28 28 28 28 28 29 29 29 29 29 30 31 31 31 32 31 31 32 33 33 33 32 32
30 30 30 29 28 25 26 27 26 26 27 27 27 26 26 26 26 26 27 27 27 28 28 28 29 29 29 29 29 29 30 30 31 32 32 32 32 32 33 34 35 34 33 33
29 30 31 29 29 28 27 26 26 27 27 28 27 28 28 27 28 28 28 28 27 28 28 28 28 29 29 29 29 30 30 31 31 33 33 33 33 34 34 35 35 35 35 35
30 31 31 31 30 30 29 28 28 27 27 27 27 28 28 29 29 29 29 28 27 28 28 28 28 28 29 30 30 30 31 32 33 33 34 34 34 35 34 34 33 33 34 34
31 31 31 31 31 31 31 31 30 29 28 28 28 28 29 29 29 28 28 28 27 28 28 28 29 29 30 30 31 32 32 33 34 34 34 34 34 34 33 33 33 33 34 33
31 31 31 32 32 32 32 32 32 31 31 30 30 30 30 29 29 28 29 30 29 29 29 29 30 30 30 31 32 32 33 34 34 34 34 34 33 33 33 33 34 34 34 34
31 31 31 32 32 32 32 32 31 31 31 30 29 29 29 29 29 29 29 30 30 30 31 30 30 30 30 31 32 33 34 34 34 34 34 34 34 34 34 35 34 35 35 35
31 32 32 32 32 32 32 32 31 30 30 30 29 29 29 29 28 29 29 28 29 29 30 30 30 31 31 32 33 33 33 34 35 35 35 35 35 35 35 35 35 35 35 36
32 33 33 32 32 32 32 32 31 31 31 31 30 30 29 29 29 29 29 29 29 29 30 30 30 31 32 32 33 33 34 34 35 35 35 35 35 35 35 35 35 35 35 35
32 32 32 32 31 32 32 32 32 31 31 32 31 30 30 30 30 30 30 30 30 30 31 31 31 31 32 33 34 34 35 35 35 35 34 34 34 34 35 35 34 34 33 33
32 32 32 33 33 33 33 33 32 32 32 32 31 31 32 31 31 31 31 31 31 31 32 32 32 32 33 33 34 34 34 34 35 34 33 33 33 33 33 34 33 32 31 31
31 31 32 33 33 33 33 33 33 32 32 32 32 32 32 32 32 32 32 32 32 32 31 32 32 33 33 33 33 33 33 33 33 33 33 33 33 33 32 32 32 31 31 31
30 30 30 31 31 32 32 32 33 33 33 33 32 32 32 33 33 32 32 32 31 31 31 31 32 33 33 33 33 33 32 31 32 32 33 33 33 33 33 32 31 31 31 31
29 30 30 31 31 31 30 31 31 32 32 33 33 32 32 31 31 31 31 31 31 31 31 31 31 32 32 32 32 31 30 31 31 32 32 32 32 32 32 31 31 31 31 30
27 28 29 29 30 30 29 29 29 30 31 32 31 31 31 31 31 31 31 31 31 31 31 30 29 29 29 30 30 30 30 30 31 31 31 31 31 31 30 31 31 30 30 29
24 26 27 28 28 28 28 28 28 28 29 29 29 29 30 30 31 31 31 31 30 30 29 29 29 29 29 30 30 30 30 30 31 31 31 30 30 29 28 29 29 28 27 26
21 22 24 26 26 26 26 26 26 26 26 28 29 29 28 28 28 28 28 28 29 29 29 29 29 29 29 29 29 29 29 30 31 31 30 30 29 28 28 27 27 26 25 25
19 20 20 21 22 23 24 24 24 25 25 25 26 27 27 27 27 27 26 27 28 28 28 28 29 29 29 29 29 29 29 30 30 29 29 28 28 27 26 26 25 25 24 24
16 17 18 18 19 20 21 21 22 23 23 24 25 25 26 26 26 27 27 28 28 29 29 28 28 28 28 28 28 28 28 28 28 27 27 27 26 26 25 25 24 23 22 22
16 17 17 17 17 18 19 19 20 21 22 22 23 23 25 25 26 26 26 26 27 27 27 27 27 27 27 27 27 26 26 26 26 26 25 25 25 24 24 23 22 22 21 21
16 17 17 16 16 16 17 18 18 19 20 20 21 21 23 24 25 25 26 26 26 26 26 26 26 26 26 25 25 25 25 25 25 25 24 23 22 22 21 21 21 21 21 21
15 15 15 15 15 15 16 16 17 18 19 20 20 21 22 23 24 24 24 24 24 24 24 24 24 25 24 24 24 24 24 24 24 23 22 22 22 21 20 21 20 21 21 21
Wind_Direction
241 243 247 251 251 251 251 251 254 258 260 261 263 266 266 268 270 272 273 274 274 275 276 277 280 283 285 285 286 288 289 290 291 292 293 294 293 293 292 291 291 289 289 287
246 246 248 249 249 251 254 256 259 260 262 264 265 266 266 268 270 271 273 274 276 277 278 278 279 282 284 285 286 286 286 287 288 289 291 292 292 291 292 290 290 290 290 288
247 247 248 249 249 252 255 258 261 263 266 269 268 268 269 270 270 272 274 275 276 278 279 279 279 282 283 283 284 286 286 284 286 289 291 292 290 290 290 290 289 288 290 289
246 247 247 249 250 252 256 258 262 265 268 269 270 270 271 272 273 274 275 276 276 277 279 279 279 280 282 282 283 285 287 286 287 288 289 290 290 289 290 290 290 289 289 290
246 249 252 252 253 254 256 259 262 267 269 271 273 272 273 275 275 275 276 275 276 277 278 280 280 280 280 281 283 285 285 284 285 286 287 288 290 290 290 290 289 289 289 289
247 248 251 256 257 257 259 261 263 267 270 271 273 275 275 275 277 275 276 276 277 278 279 279 280 281 281 282 284 284 284 285 285 286 286 286 288 289 289 290 289 287 287 288
249 251 254 256 257 257 258 262 265 267 269 270 272 275 275 275 277 277 278 277 278 280 280 280 279 280 280 282 283 284 285 285 286 286 288 288 289 291 290 289 288 287 287 287
249 251 254 258 260 259 261 263 265 268 270 271 271 273 275 275 276 278 279 280 280 280 280 279 280 281 282 283 284 285 286 286 287 288 288 288 289 289 290 290 288 287 286 286
249 252 255 257 260 262 263 264 266 268 270 271 272 274 276 276 276 277 279 279 278 277 278 279 281 282 283 285 284 285 287 287 288 289 288 288 290 290 290 290 289 287 286 285
251 253 255 256 258 260 262 264 267 269 271 272 272 274 275 277 277 277 277 276 275 275 277 279 281 281 282 284 285 286 286 287 287 288 288 288 289 289 289 290 288 287 287 285
253 254 255 256 258 260 262 264 267 270 271 273 275 274 274 274 274 274 275 274 274 275 278 280 281 281 281 283 285 286 287 288 288 287 288 288 288 289 289 290 290 288 288 287
255 255 256 258 259 260 262 264 267 269 271 272 273 273 272 272 273 274 275 276 275 277 279 280 280 280 281 282 284 286 287 288 288 288 287 286 288 289 289 289 290 290 289 288
256 257 258 259 260 262 263 264 264 265 267 269 269 270 271 272 274 276 277 278 277 279 279 280 280 281 282 283 285 286 287 287 288 287 287 288 288 288 287 288 290 290 289 289
257 258 258 259 260 261 262 263 264 264 265 265 267 269 271 272 274 276 277 278 280 281 281 281 281 282 283 283 285 286 287 287 288 287 286 287 287 288 289 290 290 291 290 289
258 259 260 261 261 261 262 263 264 264 265 265 266 267 269 271 274 276 277 278 280 281 283 282 283 283 284 285 286 287 287 287 288 287 286 287 288 289 289 290 291 292 292 291
259 261 262 263 262 262 264 264 265 265 265 265 265 266 267 269 271 274 276 278 280 282 283 283 284 284 284 286 288 288 288 289 288 289 289 289 289 290 290 291 291 291 291 291
260 260 260 262 263 263 265 265 263 262 263 263 264 267 268 269 271 273 275 277 279 281 282 283 284 285 286 288 289 290 290 289 290 291 292 292 292 292 291 291 291 291 290 290
260 260 261 262 264 265 266 265 262 261 261 262 263 266 269 270 272 273 274 276 278 280 282 283 285 286 286 287 289 291 291 291 292 293 295 294 293 293 293 291 291 291 291 291
260 260 261 262 263 266 266 266 262 260 261 263 265 266 268 269 270 272 274 276 278 280 282 284 286 287 288 289 289 290 290 292 294 295 296 295 295 294 293 292 291 292 292 291
262 262 263 264 265 266 266 266 264 260 260 263 264 265 266 268 269 271 272 275 279 281 283 283 284 286 288 289 290 291 292 294 295 296 295 296 296 296 295 295 294 293 291 291
263 263 264 265 266 265 264 265 265 264 263 262 263 265 266 268 270 271 273 275 278 280 282 283 285 287 290 290 291 292 293 294 295 296 295 295 296 297 297 298 297 295 292 290
268 267 268 268 267 265 265 265 266 267 267 264 262 263 265 268 270 272 274 276 279 281 283 284 285 288 289 290 291 294 295 295 295 295 295 295 295 295 296 298 297 295 293 291
273 274 273 271 268 267 266 265 267 269 269 268 267 266 267 270 272 274 276 278 280 281 282 283 285 287 289 291 292 293 294 295 296 295 296 295 296 296 297 297 296 295 294 293
278 277 276 275 274 273 271 271 272 273 273 272 272 270 269 270 272 275 278 279 280 282 283 284 286 288 290 291 292 294 296 297 297 296 296 296 296 296 297 297 295 294 294 293
280 278 278 278 278 278 279 278 277 277 278 277 275 274 272 272 274 276 278 280 282 283 284 286 287 288 290 291 293 295 298 299 299 298 296 296 296 296 296 295 294 295 296 295
283 282 280 279 280 282 282 282 281 281 280 280 278 278 277 275 275 277 278 280 282 284 285 287 288 289 290 291 293 296 298 299 299 299 298 296 295 294 293 294 294 295 295 296
283 283 280 280 280 280 281 282 284 284 284 282 281 281 282 281 279 279 280 281 282 284 285 287 288 290 291 292 294 297 299 300 299 298 298 298 297 296 295 295 294 295 295 295
Height
5866 5867 5869 5870 5871 5872 5874 5875 5877 5877 5877 5877 5877 5878 5877 5877 5877 5876 5875 5875 5873 5873 5872 5870 5869 5868 5866 5864 5863 5861 5859 5857 5855 5853 5851 5849 5846 5843 5841 5838 5835 5833 5830 5828
5859 5861 5862 5864 5865 5866 5867 5868 5869 5870 5870 5870 5870 5870 5870 5870 5870 5869 5869 5868 5867 5866 5864 5863 5862 5860 5859 5857 5855 5853 5851 5849 5847 5846 5844 5841 5839 5836 5834 5831 5829 5826 5823 5820
5853 5855 5856 5857 5859 5860 5861 5862 5863 5863 5864 5864 5863 5863 5863 5863 5863 5862 5861 5860 5860 5858 5857 5856 5854 5852 5851 5849 5848 5846 5844 5842 5840 5838 5836 5834 5831 5829 5826 5824 5821 5819 5816 5813
5847 5848 5849 5853 5853 5854 5855 5855 5856 5856 5857 5856 5856 5856 5855 5855 5855 5854 5854 5853 5852 5851 5849 5847 5846 5844 5843 5841 5840 5838 5836 5834 5832 5830 5828 5825 5823 5821 5818 5816 5814 5811 5809 5806
5840 5841 5843 5844 5846 5847 5848 5848 5849 5850 5850 5850 5849 5848 5848 5847 5847 5846 5845 5845 5844 5842 5841 5840 5838 5836 5835 5833 5832 5830 5828 5826 5824 5822 5819 5817 5815 5813 5810 5808 5805 5803 5800 5798
5832 5834 5836 5838 5839 5839 5841 5840 5842 5842 5842 5842 5842 5842 5841 5840 5839 5838 5837 5836 5835 5834 5833 5832 5830 5829 5827 5825 5824 5822 5820 5818 5816 5813 5811 5808 5806 5804 5802 5799 5797 5794 5792 5789
5824 5826 5828 5830 5830 5832 5835 5834 5834 5834 5834 5834 5834 5834 5833 5832 5831 5830 5829 5828 5827 5826 5825 5823 5822 5820 5819 5817 5815 5813 5811 5809 5807 5804 5802 5800 5797 5795 5792 5790 5787 5785 5782 5780
5817 5819 5821 5821 5822 5824 5825 5826 5826 5826 5826 5826 5826 5825 5825 5824 5823 5822 5821 5820 5819 5818 5816 5815 5813 5812 5810 5808 5806 5804 5802 5800 5798 5795 5793 5791 5788 5786 5783 5780 5777 5775 5772 5770
5810 5812 5812 5813 5814 5815 5816 5817 5817 5818 5818 5817 5817 5817 5816 5815 5815 5814 5812 5811 5810 5809 5808 5806 5805 5803 5801 5799 5797 5795 5793 5791 5789 5786 5784 5781 5778 5776 5773 5770 5768 5765 5762 5760
5800 5802 5803 5804 5805 5806 5807 5808 5808 5809 5809 5809 5808 5808 5807 5806 5805 5805 5804 5803 5802 5801 5799 5798 5796 5795 5793 5791 5788 5786 5784 5782 5779 5776 5774 5771 5769 5766 5763 5760 5758 5755 5752 5749
5791 5793 5794 5795 5796 5797 5798 5799 5799 5800 5800 5799 5799 5798 5798 5797 5797 5796 5795 5794 5792 5791 5790 5789 5787 5786 5784 5781 5779 5777 5774 5772 5769 5767 5764 5761 5759 5756 5753 5750 5747 5745 5742 5739
5783 5784 5785 5786 5787 5788 5789 5789 5790 5790 5790 5790 5789 5789 5788 5788 5787 5787 5786 5785 5784 5782 5781 5780 5778 5776 5774 5772 5770 5767 5765 5762 5759 5757 5754 5751 5748 5745 5743 5740 5738 5735 5732 5729
5773 5774 5775 5776 5777 5778 5779 5780 5780 5780 5780 5780 5780 5780 5779 5779 5778 5778 5777 5776 5775 5774 5772 5771 5769 5767 5765 5763 5760 5758 5755 5752 5749 5746 5743 5740 5738 5735 5733 5730 5727 5724 5721 5718
5763 5764 5765 5767 5768 5769 5769 5770 5770 5770 5771 5771 5771 5770 5770 5770 5769 5769 5768 5767 5766 5765 5763 5761 5760 5758 5755 5753 5750 5747 5745 5742 5739 5736 5733 5730 5727 5724 5722 5719 5717 5713 5711 5708
5753 5754 5755 5757 5758 5759 5759 5760 5760 5760 5761 5761 5761 5761 5760 5760 5760 5759 5758 5758 5757 5755 5754 5752 5750 5748 5745 5743 5740 5737 5734 5731 5728 5725 5722 5719 5717 5714 5711 5709 5706 5703 5700 5697
5743 5744 5745 5747 5748 5749 5749 5750 5750 5750 5750 5751 5751 5751 5751 5751 5750 5750 5749 5748 5747 5746 5744 5742 5740 5738 5735 5732 5729 5726 5723 5720 5718 5715 5712 5710 5707 5704 5701 5698 5695 5692 5690 5687
5733 5734 5735 5736 5737 5738 5739 5739 5740 5740 5740 5741 5741 5741 5741 5741 5740 5740 5739 5738 5737 5736 5734 5733 5730 5728 5725 5723 5720 5716 5713 5710 5708 5705 5702 5700 5697 5694 5691 5687 5685 5682 5680 5677
5723 5724 5724 5725 5726 5727 5728 5728 5729 5729 5730 5730 5731 5731 5731 5731 5730 5730 5729 5728 5727 5726 5725 5723 5721 5718 5715 5713 5710 5707 5704 5701 5698 5695 5692 5689 5686 5684 5681 5678 5675 5672 5670 5667
5713 5714 5715 5715 5716 5717 5717 5717 5718 5718 5719 5720 5720 5720 5720 5720 5720 5720 5719 5718 5717 5716 5715 5713 5710 5708 5706 5703 5700 5698 5695 5692 5689 5686 5683 5680 5677 5674 5671 5668 5665 5662 5660 5658
5704 5704 5705 5706 5706 5707 5707 5707 5707 5708 5708 5709 5709 5709 5710 5710 5710 5710 5709 5709 5708 5706 5705 5703 5700 5698 5696 5694 5691 5688 5686 5683 5680 5677 5673 5671 5668 5665 5662 5658 5656 5653 5650 5648
5695 5695 5696 5696 5697 5697 5697 5697 5697 5697 5698 5698 5699 5699 5700 5700 5700 5700 5699 5699 5698 5696 5695 5693 5691 5689 5687 5685 5682 5679 5677 5674 5671 5668 5665 5662 5659 5656 5653 5650 5646 5644 5642 5640
5688 5688 5688 5688 5688 5688 5688 5688 5688 5688 5688 5688 5689 5690 5690 5691 5690 5690 5690 5689 5688 5687 5685 5684 5682 5680 5678 5676 5673 5671 5668 5665 5662 5659 5656 5653 5650 5647 5645 5642 5639 5636 5634 5632
5682 5681 5681 5680 5680 5680 5680 5680 5680 5680 5679 5679 5680 5680 5681 5681 5681 5681 5681 5680 5678 5677 5676 5674 5673 5671 5669 5667 5665 5662 5659 5656 5653 5650 5647 5644 5642 5639 5636 5634 5631 5629 5626 5624
5676 5675 5674 5674 5673 5673 5672 5672 5672 5671 5671 5671 5671 5671 5671 5672 5672 5672 5671 5670 5669 5668 5666 5665 5663 5662 5660 5658 5656 5653 5650 5647 5644 5642 5639 5636 5633 5631 5628 5626 5623 5621 5619 5617
5670 5669 5668 5668 5667 5666 5666 5665 5664 5664 5664 5663 5663 5663 5663 5663 5663 5663 5662 5661 5660 5659 5658 5656 5654 5653 5651 5649 5647 5644 5642 5639 5636 5633 5630 5628 5626 5623 5621 5618 5616 5614 5612 5610
5664 5663 5663 5662 5661 5660 5659 5659 5658 5657 5657 5656 5656 5655 5655 5655 5654 5654 5653 5652 5651 5650 5649 5647 5646 5644 5642 5640 5638 5636 5633 5631 5628 5625 5623 5620 5618 5616 5613 5611 5609 5607 5605 5604
5660 5659 5658 5657 5656 5655 5654 5653 5652 5652 5651 5650 5649 5649 5648 5647 5646 5645 5644 5643 5642 5641 5640 5639 5637 5636 5634 5632 5630 5628 5625 5623 5620 5618 5615 5613 5611 5608 5606 5604 5602 5600 5598 5597